Location: General Nathan Twining Observatory
(34.5931°N, 106.8201°W)
Time: 17:16:11
(UTC-07:00)

Daily predictions for brighter satellites

Satellite Brightness Start Highest point End
(mag) Time Altitude Azimuth Time Altitude Azimuth Time Altitude Azimuth
ATLAS 2A CENTAUR R/B 4.3 17:56:04 10° WSW 18:02:19 57° S 18:28:34 10° ESE
Meteor 1-11 Rocket 4.5 18:14:19 10° SSE 18:19:20 32° E 18:24:26 10° NNE
Cosmos 1461 2.9 18:17:50 10° NNW 18:21:48 56° ENE 18:25:53 10° SE
Cosmos 1140 Rocket 3.8 18:19:21 10° S 18:24:08 42° ESE 18:28:59 10° NNE
Nadezhda 1 Rocket 4.0 18:18:44 10° N 18:24:50 85° E 18:30:54 10° S
DELTA 2 R/B (1) 3.8 18:20:03 10° WNW 18:25:37 61° NNE 18:31:10 10° E
Resurs 01 Rocket 3.2 18:23:11 10° ESE 18:25:51 16° ENE 18:28:30 10° NNE
Cosmos 1300 Rocket 4.2 18:22:04 10° SSE 18:26:00 33° E 18:29:59 10° NNE
Abrixas rocket 3.5 18:23:40 10° SSW 18:26:32 26° SE 18:29:25 10° ENE
ATLAS CENTAUR R/B 3.8 18:24:39 10° S 18:28:11 15° SE 18:30:27 10° E
OAO 3 Copernicus 4.4 18:25:07 10° W 18:30:14 88° S 18:35:19 10° E
Cosmos 614 Rocket 4.5 18:27:15 10° SSE 18:31:53 36° E 18:36:30 10° NE
ALOS 3.2 18:30:40 10° SE 18:34:36 28° ENE 18:38:32 10° NNE
COSMO-SKYMED 1 3.6 18:30:28 10° N 18:34:41 51° WNW 18:38:52 10° SSW
Cosmos 2292 Rocket 4.2 18:30:39 10° S 18:35:27 75° E 18:42:02 10° N
Cosmos 1833 4.2 18:30:15 10° SSW 18:35:56 78° ESE 18:41:37 10° NNE
FREGAT/IRIS 3.3 18:33:28 10° SE 18:36:17 34° ENE 18:39:07 10° N
CENTAUR R/B 4.3 18:28:39 10° NW 18:36:19 48° WSW 18:44:14 10° S
Spot 2 Rocket 4.5 18:36:39 10° ESE 18:40:43 25° ENE 18:44:47 10° NNE
Cosmos 1340 2.9 18:39:33 10° N 18:43:13 47° E 18:46:52 10° SSE
Cosmos 2181 Rocket 4.2 18:38:57 10° N 18:45:03 51° E 18:51:12 10° SSE
SL-16 R/B 2.7 18:42:02 10° NNW 18:47:39 64° WSW 18:53:14 10° S
Cosmos 1850 Rocket 4.2 18:46:28 10° S 18:51:31 49° ESE 18:56:39 10° NNE
NOSS 8 (E) 4.5 18:48:17 10° SSW 18:51:47 86° WNW 18:55:22 10° NNE
OTV 4 2.7 18:51:01 10° S 18:52:15 12° SSE 18:52:48 12° SE
HJ-1C 3.9 18:51:30 10° SE 18:54:38 36° ENE 18:57:45 10° N
Cosmos 1709 Rocket 4.1 18:49:34 10° S 18:55:49 84° W 19:02:02 10° N
Cosmos 2074 Rocket 4.4 18:50:21 10° SSE 18:56:03 39° E 19:01:46 10° NNE
Tiangong 2 1.0 18:53:28 10° WNW 18:56:32 81° SW 18:58:32 20° ESE
Helios 1B rocket 3.7 18:54:32 15° ENE 18:56:34 20° E 18:59:39 10° SE
SJ-6B 2.7 18:53:49 10° SSE 18:57:50 76° ENE 19:01:47 10° N
Cosmos 2184 Rocket 4.4 18:53:16 10° SSE 18:59:04 39° E 19:04:50 10° NNE
FengYun 1-2 T 4.3 18:55:00 10° SSE 19:00:16 52° ENE 19:05:35 10° N
Okean 1 Rocket 3.0 18:56:26 10° S 19:00:51 65° E 19:05:18 10° NNE
CZ-3C R/B 3.3 19:00:04 10° SSW 19:01:03 10° SSW 19:01:52 10° S
Genesis I 4.5 18:59:32 10° N 19:02:38 22° NE 19:03:08 21° ENE
Cosmos 2322 Rocket 3.5 18:58:39 10° NW 19:03:56 43° WSW 19:09:12 10° S
Hubble Space Telescope 2.6 19:02:35 10° SSW 19:05:20 17° SSE 19:06:47 15° SE
NOSS 8 (H) 4.4 19:02:28 10° SSW 19:05:54 85° WNW 19:09:04 12° NNE
FENGYUN 3A 3.6 19:01:59 10° SSE 19:07:18 62° ENE 19:12:39 10° N
Meteor 1-19 Rocket 4.2 19:07:07 10° N 19:12:49 79° E 19:18:36 10° S
Intercosmos 24 4.4 19:10:08 10° SSE 19:13:56 48° E 19:19:08 10° NNE
BREEZE-M DEB (TANK) 3.6 19:13:17 10° NNW 19:15:59 31° NE 19:17:19 26° ENE
Gbstr 26 Del rocket 4.0 19:13:11 10° WSW 19:16:46 36° NW 19:19:28 15° NNE
Cosmos 1238 Rocket 2.6 19:15:39 10° NNW 19:18:33 59° W 19:21:33 10° S
CZ-2D R/B 3.7 19:18:53 37° ENE 19:18:53 37° ENE 19:22:22 10° N
GPS 2-04 Rocket1 2.9 19:15:11 10° WSW 19:19:28 71° SSE 19:21:01 38° E
Cosmos 2322 3.6 19:14:47 10° NNW 19:20:32 80° ENE 19:26:13 10° SSE
H-2A R/B 2.6 19:21:39 21° SSE 19:23:57 61° ENE 19:27:38 10° N
Cosmos 1025 Rocket 3.2 19:19:50 10° N 19:24:04 46° E 19:25:45 31° SE
Cosmos 1536 2.9 19:21:07 10° S 19:25:06 76° W 19:29:06 10° N
Atlas Centaur 2 4.2 19:22:11 10° S 19:25:14 13° SSE 19:26:14 13° SE
GEOS 3 Rocket 4.0 19:22:34 10° NNE 19:27:45 64° NW 19:32:58 10° SW
Okean 1-7 Rocket 3.5 19:26:20 10° N 19:30:53 79° E 19:35:20 10° S
Cosmos 2285 Rocket 4.4 19:24:57 10° N 19:30:59 41° ENE 19:32:48 34° ESE
BREEZE-M DEB (TANK) 3.0 19:29:44 10° NW 19:35:05 58° SW 19:35:45 44° S
COSMOS 2428 2.8 19:30:23 10° NNW 19:35:57 54° ENE 19:37:45 39° ESE
Cosmos 2237 4.1 19:30:30 10° NNW 19:36:14 71° ENE 19:39:35 25° SSE
Meteor 1-23 Rocket 4.1 19:30:42 10° N 19:36:30 73° E 19:42:12 10° SSE
SL-19 R/B 4.3 19:31:27 10° SSE 19:37:03 86° WSW 19:43:01 10° NNW
Cosmos 2333 4.4 19:31:42 10° N 19:37:15 48° ENE 19:38:23 42° E
Meteor 2-4 Rocket 3.6 19:33:04 10° N 19:38:37 86° W 19:43:59 10° S
Cosmos 2237 Rocket 3.9 19:35:39 10° NNE 19:37:45 16° NNE 19:37:45 16° NNE
Cosmos 2219 3.9 19:47:07 10° SW 19:52:45 56° WNW 19:58:23 10° NNE
Cosmos 2360 Rocket 3.3 19:49:23 10° NW 19:54:43 43° WSW 20:00:02 10° S
Cosmos 2219 Rocket 2.9 19:51:19 10° N 19:55:22 37° NNE 19:55:22 37° NNE
Cosmos 2227 Rocket 3.7 19:53:31 10° S 19:55:24 21° SSE 19:55:24 21° SSE
Resurs 01 Rocket 2.9 19:57:51 10° SSW 20:01:57 39° W 20:06:06 10° NNW
Cosmos 1570 Rocket 4.4 19:56:48 10° NNW 20:01:58 62° WSW 20:04:49 26° S
Abrixas rocket 4.4 20:00:18 10° W 20:02:26 26° WNW 20:02:26 26° WNW
ALOS 4.5 20:08:11 10° SSW 20:11:57 24° W 20:15:44 10° NW
DELTA 2 R/B (1) 3.8 20:06:38 10° WNW 20:12:08 58° SSW 20:12:19 58° SSW
Helios 1A 4.4 20:17:35 35° NW 20:17:35 35° NW 20:20:14 10° NNW
Cosmos 2333 Rocket 3.4 20:25:05 10° NNW 20:28:17 34° N 20:28:17 34° N
USA 229 DEB 3.8 20:35:13 10° NW 20:42:03 75° W 20:42:03 75° W
USA 229 3.8 20:35:19 10° NNW 20:42:06 75° W 20:42:06 75° W
ATLAS 2A CENTAUR R/B 4.1 20:41:23 10° WSW 20:44:17 26° SSW 20:44:17 26° SSW
